Ironwood, MI

7:46 AM CDT on April 23, 2018 (GMT -0500)
Gogebic-Iron County

Weather History for KIWD - December, 2012

Change the Weather History Date:

Monday, December 17, 2012

  Actual Average Record
Temperature  
Mean Temperature 24 °F -  
Max Temperature 24 °F 23 °F 42 °F (1997)
Min Temperature 23 °F 12 °F -2 °F (2008)
Degree Days  
Heating Degree Days 42    
Moisture  
Dew Point 19 °F    
Average Humidity 80    
Maximum Humidity 86    
Minimum Humidity 74    
Precipitation  
Precipitation 0.00 in - - ()
Sea Level Pressure  
Sea Level Pressure 29.65 in    
Wind  
Wind Speed 10 mph (WSW)    
Max Wind Speed 14 mph    
Max Gust Speed 16 mph    
Visibility 10 miles    
Events      
Averages and records for this station are not official NWS values.
T = Trace of Precipitation, MM = Missing Value Source: NWS Daily Summary

Daily Weather History Graph

Daily Weather History Graph

Search for Another Location

Airport or City:

Astronomy

Dec. 17, 2012 Rise Set
Actual Time 7:39 AM CST 4:14 PM CST
Civil Twilight 7:04 AM CST 4:49 PM CST
Nautical Twilight 6:25 AM CST 5:27 PM CST
Astronomical Twilight 5:49 AM CST 6:04 PM CST
Moon 10:33 AM CST (12/17) 9:52 PM CST (12/17)
Length of Visible Light 9h 45m
Length of Day
8h 34m
Waxing Crescent, 25% of the Moon is Illuminated
Dec 17
Waxing Crescent
Dec 19
First Quarter
Dec 28
Full
Jan 4
Last Quarter
Jan 11
New

Hourly Weather History & Observations

Time (CST) Temp. Windchill Dew Point Humidity Pressure Visibility Wind Dir Wind Speed Gust Speed Precip Events Conditions
12:15 AM 24.8 °F 13.4 °F 17.6 °F 74% 29.64 in 10.0 mi West 12.7 mph - N/A   Overcast
12:35 AM 24.8 °F 13.4 °F 19.4 °F 80% 29.64 in 10.0 mi WSW 12.7 mph - N/A   Overcast
12:55 AM 24.8 °F 13.4 °F 19.4 °F 80% 29.64 in 10.0 mi WSW 12.7 mph - N/A   Overcast
1:15 AM 24.8 °F 15.3 °F 19.4 °F 80% 29.64 in 10.0 mi WSW 9.2 mph - N/A   Overcast
1:35 AM 24.8 °F 13.4 °F 19.4 °F 80% 29.64 in 10.0 mi WSW 12.7 mph 16.1 mph N/A   Overcast
2:15 AM 24.8 °F 13.4 °F 19.4 °F 80% 29.65 in 10.0 mi West 12.7 mph - N/A   Overcast
2:35 AM 24.8 °F 12.9 °F 17.6 °F 74% 29.66 in 10.0 mi West 13.8 mph - N/A   Overcast
2:55 AM 23.0 °F 10.6 °F 19.4 °F 86% 29.66 in 10.0 mi West 13.8 mph - N/A   Overcast
3:15 AM 23.0 °F 11.7 °F 19.4 °F 86% 29.66 in 10.0 mi West 11.5 mph - N/A   Overcast
3:35 AM 23.0 °F 13.1 °F 19.4 °F 86% 29.66 in 10.0 mi WSW 9.2 mph - N/A   Overcast
3:55 AM 23.0 °F 10.6 °F 19.4 °F 86% 29.66 in 10.0 mi West 13.8 mph - N/A   Overcast
4:15 AM 23.0 °F 12.4 °F 17.6 °F 80% 29.65 in 10.0 mi West 10.4 mph - N/A   Overcast
4:35 AM 23.0 °F 13.9 °F 17.6 °F 80% 29.65 in 10.0 mi WSW 8.1 mph - N/A   Overcast
4:55 AM 23.0 °F 13.1 °F 17.6 °F 80% 29.65 in 10.0 mi WSW 9.2 mph - N/A   Overcast
5:15 AM 23.0 °F 12.4 °F 19.4 °F 86% 29.65 in 10.0 mi WSW 10.4 mph - N/A   Overcast
5:35 AM 23.0 °F 13.1 °F 19.4 °F 86% 29.65 in 10.0 mi WSW 9.2 mph - N/A   Overcast
6:15 AM 23.0 °F 12.4 °F 19.4 °F 86% 29.66 in 10.0 mi West 10.4 mph - N/A   Overcast
6:35 AM 23.0 °F 13.9 °F 19.4 °F 86% 29.66 in 10.0 mi West 8.1 mph - N/A   Overcast
6:55 AM 23.0 °F 12.4 °F 19.4 °F 86% 29.66 in 10.0 mi West 10.4 mph - N/A   Overcast
7:15 AM 24.8 °F 14.6 °F 19.4 °F 80% 29.66 in 10.0 mi WSW 10.4 mph - N/A   Overcast
7:35 AM 24.8 °F 15.3 °F 19.4 °F 80% 29.66 in 10.0 mi WSW 9.2 mph - N/A   Overcast
7:55 AM 23.0 °F 13.9 °F 19.4 °F 86% 29.66 in 10.0 mi WSW 8.1 mph - N/A   Overcast
8:15 AM 23.0 °F 13.9 °F 19.4 °F 86% 29.66 in 10.0 mi WSW 8.1 mph - N/A   Overcast
8:35 AM 23.0 °F 13.9 °F 19.4 °F 86% 29.66 in 10.0 mi WSW 8.1 mph - N/A   Overcast
8:55 AM 23.0 °F 13.1 °F 19.4 °F 86% 29.66 in 10.0 mi WSW 9.2 mph - N/A   Overcast
9:15 AM 24.8 °F 14.6 °F 19.4 °F 80% 29.67 in 10.0 mi West 10.4 mph - N/A   Overcast
9:35 AM 23.0 °F 13.1 °F 19.4 °F 86% 29.67 in 10.0 mi WSW 9.2 mph - N/A   Overcast
9:55 AM 24.8 °F 14.6 °F 17.6 °F 74% 29.67 in 10.0 mi WSW 10.4 mph - N/A   Overcast
10:15 AM 23.0 °F 12.4 °F 19.4 °F 86% 29.68 in 10.0 mi WSW 10.4 mph - N/A   Overcast
10:35 AM 24.8 °F 15.3 °F 19.4 °F 80% 29.67 in 10.0 mi WSW 9.2 mph - N/A   Overcast
10:55 AM 24.8 °F 15.3 °F 19.4 °F 80% 29.67 in 10.0 mi WSW 9.2 mph - N/A   Overcast
11:15 AM 24.8 °F 15.3 °F 17.6 °F 74% 29.66 in 10.0 mi WSW 9.2 mph - N/A   Overcast
11:35 AM 24.8 °F 15.3 °F 19.4 °F 80% 29.66 in 10.0 mi West 9.2 mph - N/A   Overcast
11:55 AM 24.8 °F 16.1 °F 19.4 °F 80% 29.65 in 10.0 mi West 8.1 mph - N/A   Overcast
12:15 PM 24.8 °F 16.1 °F 19.4 °F 80% 29.65 in 10.0 mi WSW 8.1 mph - N/A   Overcast
12:35 PM 24.8 °F 16.1 °F 19.4 °F 80% 29.64 in 10.0 mi WSW 8.1 mph - N/A   Overcast
12:55 PM 24.8 °F 16.1 °F 19.4 °F 80% 29.64 in 10.0 mi WSW 8.1 mph - N/A   Overcast
1:15 PM 24.8 °F 16.9 °F 19.4 °F 80% 29.64 in 10.0 mi West 6.9 mph - N/A   Overcast
1:35 PM 24.8 °F 16.1 °F 17.6 °F 74% 29.63 in 10.0 mi WSW 8.1 mph - N/A   Overcast
1:55 PM 24.8 °F 15.3 °F 17.6 °F 74% 29.63 in 10.0 mi WSW 9.2 mph - N/A   Overcast
2:15 PM 24.8 °F 16.9 °F 17.6 °F 74% 29.63 in 10.0 mi WSW 6.9 mph - N/A   Overcast
2:35 PM 24.8 °F 16.1 °F 17.6 °F 74% 29.64 in 10.0 mi West 8.1 mph - N/A   Overcast
2:55 PM 24.8 °F 17.9 °F 17.6 °F 74% 29.64 in 10.0 mi WSW 5.8 mph - N/A   Overcast
3:15 PM 24.8 °F 17.9 °F 17.6 °F 74% 29.64 in 10.0 mi WSW 5.8 mph - N/A   Overcast
3:55 PM 24.8 °F 15.3 °F 17.6 °F 74% 29.64 in 10.0 mi WSW 9.2 mph - N/A   Overcast
6:35 PM 24.8 °F 20.5 °F 17.6 °F 74% 29.66 in 10.0 mi SSW 3.5 mph - N/A   Overcast
6:55 PM 24.8 °F 19.1 °F 17.6 °F 74% 29.67 in 10.0 mi SW 4.6 mph - N/A   Overcast
7:15 PM 24.8 °F - 17.6 °F 74% 29.67 in 10.0 mi Calm Calm - N/A   Overcast
7:35 PM 24.8 °F 20.5 °F 17.6 °F 74% 29.67 in 10.0 mi SW 3.5 mph - N/A   Overcast
8:15 PM 24.8 °F 20.5 °F 17.6 °F 74% 29.68 in 10.0 mi WSW 3.5 mph - N/A   Overcast
8:35 PM 24.8 °F 17.9 °F 19.4 °F 80% 29.67 in 10.0 mi WSW 5.8 mph - N/A   Overcast